User: anonymous   Login
Location: Caltech
(34.1382°N, 118.1253°W)
Time: 21:54:56
(UTC-08:00)
Language:

TMSAT-1 - Orbit

View from above orbital plane
View from above orbital plane
View from above satellite
View from above satellite

Ground track
Ground track

The orbit data is extracted from the following two-line orbital elements,

1 25396U 98043C   16037.48344411  .00000042  00000-0  36373-4 0  9997
2 25396  98.5239 348.4944 0002470   0.4733 109.6534 14.24373044913462
Epoch (UTC): 06 February 2016 11:36:09
Eccentricity: 0.0002470
inclination: 98.5239°
perigee height: 809 km
apogee height: 812 km
right ascension of ascending node: 348.4944°
argument of perigee: 0.4733°
revolutions per day: 14.24373044
mean anomaly at epoch: 109.6534°
orbit number at epoch: 91346

The dashed part of the orbit path shows where the satellite is in the earth's shadow,  

DLR